TimeWIB,TemperatureF,Dew PointF,Humidity,Sea Level PressureIn,VisibilityMPH,Wind Direction,Wind SpeedMPH,Gust SpeedMPH,PrecipitationIn,Events,Conditions,WindDirDegrees,DateUTC
12:00 AM,80.6,71.6,74,29.86,3.1,SSW,6.9,-,N/A,,Partly Cloudy,210,2013-10-14 17:00:00
12:30 AM,78.8,71.6,78,29.86,3.1,SSW,5.8,-,N/A,,Partly Cloudy,210,2013-10-14 17:30:00
1:00 AM,78,72,77,29.86,3,SSW,3.5,,,,Haze,210,2013-10-14 18:00:00
1:00 AM,78.8,71.6,78,29.86,3.1,SSW,4.6,-,N/A,,Partly Cloudy,200,2013-10-14 18:00:00
1:30 AM,78.8,71.6,78,29.83,3.1,SW,6.9,-,N/A,,Partly Cloudy,230,2013-10-14 18:30:00
2:00 AM,78.8,71.6,78,29.83,3.1,SSW,4.6,-,N/A,,Partly Cloudy,200,2013-10-14 19:00:00
2:30 AM,78.8,71.6,78,29.83,3.1,WSW,4.6,-,N/A,,Partly Cloudy,250,2013-10-14 19:30:00
3:00 AM,78.8,73.4,83,29.83,3.1,SW,6.9,-,N/A,,Partly Cloudy,220,2013-10-14 20:00:00
3:30 AM,78.8,73.4,83,29.83,5.0,South,3.5,-,N/A,,Unknown,170,2013-10-14 20:30:00
4:00 AM,77,75,90,29.84,3,South,2.3,,,,Haze,170,2013-10-14 21:00:00
4:00 AM,78.8,73.4,83,29.83,6.2,South,4.6,-,N/A,,Unknown,170,2013-10-14 21:00:00
4:30 AM,78.8,73.4,83,29.86,6.2,South,3.5,-,N/A,,Unknown,190,2013-10-14 21:30:00
5:00 AM,78.8,73.4,83,29.86,6.2,South,3.5,-,N/A,,Unknown,170,2013-10-14 22:00:00
5:30 AM,78.8,73.4,83,29.86,6.2,SSW,4.6,-,N/A,,Unknown,200,2013-10-14 22:30:00
6:00 AM,78.8,73.4,83,29.86,6.2,Variable,3.5,-,N/A,,Unknown,0,2013-10-14 23:00:00
6:30 AM,80.6,73.4,79,29.86,3.7,Variable,3.5,-,N/A,,Partly Cloudy,0,2013-10-14 23:30:00
7:00 AM,80,72,72,29.88,4,SE,5.8,,,,Haze,140,2013-10-15 00:00:00
7:00 AM,82.4,71.6,70,29.86,4.3,SSE,9.2,-,N/A,,Partly Cloudy,150,2013-10-15 00:00:00
7:30 AM,84.2,71.6,66,29.89,3.7,SSE,6.9,-,N/A,,Partly Cloudy,150,2013-10-15 00:30:00
8:00 AM,86.0,71.6,62,29.89,4.3,SE,8.1,-,N/A,,Partly Cloudy,140,2013-10-15 01:00:00
8:30 AM,87.8,71.6,58,29.89,4.3,SE,6.9,-,N/A,,Partly Cloudy,140,2013-10-15 01:30:00
9:00 AM,89.6,69.8,52,29.89,4.3,Variable,4.6,-,N/A,,Partly Cloudy,0,2013-10-15 02:00:00
9:30 AM,91.4,71.6,52,29.86,4.3,Variable,5.8,-,N/A,,Partly Cloudy,0,2013-10-15 02:30:00
10:00 AM,90,71,45,29.88,4,NNE,9.2,,,,Haze,30,2013-10-15 03:00:00
10:00 AM,91.4,71.6,52,29.86,4.3,NNE,9.2,-,N/A,,Partly Cloudy,30,2013-10-15 03:00:00
10:30 AM,91.4,71.6,52,29.86,5.0,NNE,9.2,-,N/A,,Partly Cloudy,30,2013-10-15 03:30:00
11:00 AM,91.4,69.8,49,29.86,5.0,NNE,8.1,-,N/A,,Partly Cloudy,20,2013-10-15 04:00:00
11:30 AM,91.4,69.8,49,29.83,5.0,NE,9.2,-,N/A,,Partly Cloudy,50,2013-10-15 04:30:00
12:00 PM,91.4,69.8,49,29.83,5.0,NE,11.5,-,N/A,,Partly Cloudy,40,2013-10-15 05:00:00
12:30 PM,91.4,69.8,49,29.80,5.0,NNE,11.5,-,N/A,,Partly Cloudy,20,2013-10-15 05:30:00
1:00 PM,91,70,41,29.80,5,North,11.5,,,,Haze,10,2013-10-15 06:00:00
1:00 PM,91.4,69.8,49,29.80,5.0,North,11.5,-,N/A,,Partly Cloudy,10,2013-10-15 06:00:00
1:30 PM,91.4,71.6,52,29.77,5.6,NNE,10.4,-,N/A,,Partly Cloudy,30,2013-10-15 06:30:00
2:00 PM,91.4,71.6,52,29.77,5.0,NE,11.5,-,N/A,,Partly Cloudy,40,2013-10-15 07:00:00
2:30 PM,91.4,69.8,49,29.77,5.0,NNE,9.2,-,N/A,,Partly Cloudy,30,2013-10-15 07:30:00
3:00 PM,89.6,69.8,52,29.77,5.0,NE,11.5,-,N/A,,Partly Cloudy,40,2013-10-15 08:00:00
3:30 PM,89.6,69.8,52,29.77,5.0,NNE,11.5,-,N/A,,Partly Cloudy,30,2013-10-15 08:30:00
4:00 PM,88,70,47,29.76,5,NNE,12.7,,,,Haze,30,2013-10-15 09:00:00
4:00 PM,89.6,71.6,55,29.74,5.0,NNE,12.7,-,N/A,,Partly Cloudy,30,2013-10-15 09:00:00
4:30 PM,87.8,71.6,58,29.77,5.0,NNE,9.2,-,N/A,,Partly Cloudy,30,2013-10-15 09:30:00
5:00 PM,86.0,71.6,62,29.77,5.0,NE,6.9,-,N/A,,Partly Cloudy,40,2013-10-15 10:00:00
5:30 PM,86.0,71.6,62,29.77,5.0,NNE,6.9,-,N/A,,Partly Cloudy,30,2013-10-15 10:30:00
6:00 PM,84.2,71.6,66,29.80,5.0,North,5.8,-,N/A,,Partly Cloudy,360,2013-10-15 11:00:00
6:30 PM,84.2,71.6,66,29.80,4.3,North,5.8,-,N/A,,Scattered Clouds,360,2013-10-15 11:30:00
7:00 PM,84,71,57,29.83,4,NNE,4.6,,,,Haze,20,2013-10-15 12:00:00
7:00 PM,84.2,71.6,66,29.83,3.7,NE,6.9,-,N/A,,Scattered Clouds,50,2013-10-15 12:00:00
7:30 PM,84.2,73.4,70,29.83,3.7,Calm,Calm,-,N/A,,Partly Cloudy,0,2013-10-15 12:30:00
8:00 PM,84.2,73.4,70,29.83,4.3,NE,3.5,-,N/A,,Scattered Clouds,50,2013-10-15 13:00:00
8:30 PM,84.2,73.4,70,29.86,4.3,NE,3.5,-,N/A,,Scattered Clouds,50,2013-10-15 13:30:00
9:00 PM,84.2,73.4,70,29.86,4.3,NE,3.5,-,N/A,,Scattered Clouds,40,2013-10-15 14:00:00
9:30 PM,82.4,73.4,74,29.86,2.8,NNW,3.5,-,N/A,,Scattered Clouds,340,2013-10-15 14:30:00
10:00 PM,83,73,65,29.88,3,NNW,2.3,,,,Haze,340,2013-10-15 15:00:00
10:00 PM,82.4,73.4,74,29.86,2.8,NNW,2.3,-,N/A,,Scattered Clouds,340,2013-10-15 15:00:00
10:30 PM,82.4,73.4,74,29.86,3.1,Calm,Calm,-,N/A,,Scattered Clouds,0,2013-10-15 15:30:00
11:00 PM,82.4,71.6,70,29.86,3.7,South,4.6,-,N/A,,Partly Cloudy,190,2013-10-15 16:00:00
11:30 PM,82.4,71.6,70,29.86,3.7,South,5.8,-,N/A,,Scattered Clouds,180,2013-10-15 16:30:00